Weather History for Ypsilanti, MI

Change the Weather History Date:

Friday, January 31, 2014

  Actual Average Record
Temperature  
Mean Temperature 32 °F -  
Max Temperature 35 °F 32 °F 59 °F (1989)
Min Temperature 28 °F 19 °F -7 °F (1971)
Degree Days  
Heating Degree Days 34    
Moisture  
Dew Point 22 °F    
Average Humidity 68    
Maximum Humidity 82    
Minimum Humidity 61    
Precipitation  
Precipitation 0.00 in - - ()
Sea Level Pressure  
Sea Level Pressure 30.04 in    
Wind  
Wind Speed 11 mph (SW)    
Max Wind Speed 16 mph    
Max Gust Speed -    
Visibility 9 miles    
Events Snow    
Averages and records for this station are not official NWS values.
T = Trace of Precipitation, MM = Missing Value Source: NWS Daily Summary

Daily Weather History Graph

Daily Weather History Graph

Search for Another Location

Airport:

Trip Planner

Search our weather history database for the weather conditions in past years. The results will help you decide how hot, cold, wet, or windy it might be!

Date:

Astronomy

Jan. 31, 2014 Rise Set
Actual Time 7:48 AM EST 5:47 PM EST
Civil Twilight 7:18 AM EST 6:17 PM EST
Nautical Twilight 6:45 AM EST 6:50 PM EST
Astronomical Twilight 6:12 AM EST 7:23 PM EST
Moon 7:55 AM EST (1/31) 7:12 PM EST (1/31)
Length of Visible Light 10h 58m
Length of Day
9h 58m
New Moon, 1% of the Moon is Illuminated
Jan 31
New Moon
Feb 6
First Quarter
Feb 14
Full
Feb 22
Last Quarter
Mar 1
New

Hourly Weather History & Observations

Time (EST) Temp. Windchill Dew Point Humidity Pressure Visibility Wind Dir Wind Speed Gust Speed Precip Events Conditions
12:19 AM 30.2 °F 18.9 °F 21.2 °F 69% 29.84 in 10.0 mi SW 16.1 mph - N/A   Overcast
12:53 AM 30.0 °F 19.5 °F 23.0 °F 75% 29.87 in 10.0 mi SW 13.8 mph - N/A   Overcast
1:53 AM 30.0 °F 19.5 °F 23.0 °F 75% 29.88 in 10.0 mi SSW 13.8 mph - N/A   Overcast
2:53 AM 30.9 °F 21.7 °F 21.9 °F 69% 29.91 in 10.0 mi SSW 11.5 mph - N/A   Overcast
3:53 AM 30.9 °F 20.7 °F 21.0 °F 67% 29.92 in 10.0 mi SSW 13.8 mph - N/A   Overcast
4:53 AM 30.9 °F 21.2 °F 19.9 °F 64% 29.93 in 10.0 mi SW 12.7 mph - N/A   Overcast
5:41 AM 30.2 °F 20.8 °F 19.4 °F 64% 29.93 in 10.0 mi SW 11.5 mph - N/A   Overcast
5:53 AM 30.9 °F 21.7 °F 19.9 °F 64% 29.96 in 10.0 mi SSW 11.5 mph - N/A   Overcast
6:53 AM 30.9 °F 22.8 °F 19.9 °F 64% 29.99 in 10.0 mi SW 9.2 mph - N/A   Overcast
7:51 AM 30.2 °F 22.6 °F 19.4 °F 64% 30.00 in 10.0 mi SW 8.1 mph - N/A   Overcast
7:53 AM 30.9 °F 23.5 °F 19.9 °F 64% 30.03 in 10.0 mi SW 8.1 mph - N/A   Overcast
8:53 AM 30.9 °F 25.2 °F 19.9 °F 64% 30.05 in 10.0 mi SW 5.8 mph - N/A   Partly Cloudy
9:53 AM 32.0 °F 25.6 °F 21.0 °F 64% 30.07 in 10.0 mi SW 6.9 mph - N/A   Clear
10:53 AM 34.0 °F 27.2 °F 23.0 °F 64% 30.09 in 10.0 mi WSW 8.1 mph - N/A   Scattered Clouds
11:53 AM 35.1 °F 27.9 °F 24.1 °F 64% 30.08 in 10.0 mi West 9.2 mph - N/A   Scattered Clouds
12:53 PM 35.1 °F 27.4 °F 24.1 °F 64% 30.06 in 10.0 mi West 10.4 mph - N/A   Partly Cloudy
1:53 PM 35.1 °F 25.9 °F 23.0 °F 61% 30.09 in 10.0 mi WSW 13.8 mph - N/A   Overcast
2:53 PM 35.1 °F 26.9 °F 23.0 °F 61% 30.09 in 10.0 mi WSW 11.5 mph - N/A   Mostly Cloudy
3:53 PM 35.1 °F 26.9 °F 23.0 °F 61% 30.11 in 10.0 mi WSW 11.5 mph - N/A   Overcast
4:53 PM 34.0 °F 26.6 °F 21.9 °F 61% 30.12 in 10.0 mi WSW 9.2 mph - N/A   Overcast
5:53 PM 33.1 °F 26.1 °F 21.9 °F 64% 30.12 in 10.0 mi WSW 8.1 mph - N/A   Overcast
6:53 PM 32.0 °F 25.6 °F 21.9 °F 66% 30.14 in 10.0 mi WSW 6.9 mph - N/A   Overcast
7:53 PM 30.0 °F 24.1 °F 19.9 °F 66% 30.14 in 10.0 mi SW 5.8 mph - N/A   Overcast
8:53 PM 30.0 °F 23.2 °F 23.0 °F 75% 30.14 in 7.0 mi SW 6.9 mph - N/A   Clear
9:53 PM 28.9 °F 21.9 °F 24.1 °F 82% 30.15 in 5.0 mi SW 6.9 mph - N/A   Haze
10:53 PM 30.0 °F 23.2 °F 24.1 °F 79% 30.14 in 5.0 mi SW 6.9 mph - N/A   Haze
11:34 PM 30.2 °F 26.7 °F 24.8 °F 80% 30.13 in 2.0 mi WSW 3.5 mph - 0.00 in Snow Light Snow
11:53 PM 30.0 °F 25.2 °F 24.1 °F 79% 30.14 in 2.0 mi West 4.6 mph - 0.00 in Snow Light Snow